Ladysmith, WI

3:05 AM CDT on October 18, 2017 (GMT -0500)
Rusk County

Weather History for KRCX - October, 2013

Change the Weather History Date:

Friday, October 4, 2013

  Actual Average (KPBH) Record (KPBH)
Temperature  
Mean Temperature 56 °F -  
Max Temperature 59 °F 57 °F 78 °F (2011)
Min Temperature 52 °F 37 °F 24 °F (1999)
Degree Days  
Heating Degree Days 10    
Growing Degree Days 6 (Base 50)    
Moisture  
Dew Point 53 °F    
Average Humidity 91    
Maximum Humidity 96    
Minimum Humidity 78    
Precipitation  
Precipitation 0.21 in - - ()
Sea Level Pressure  
Sea Level Pressure 30.02 in    
Wind  
Wind Speed 9 mph (ENE)    
Max Wind Speed 14 mph    
Max Gust Speed 22 mph    
Visibility 9 miles    
Events Rain    
Averages and records for this station are not official NWS values.
T = Trace of Precipitation, MM = Missing Value Source: NWS Daily Summary

Daily Weather History Graph

Daily Weather History Graph

Search for Another Location

Airport or City:

Trip Planner

Search our weather history database for the weather conditions in past years. The results will help you decide how hot, cold, wet, or windy it might be!

Date:

Astronomy

Oct. 04, 2013 Rise Set
Actual Time 7:06 AM CDT 6:38 PM CDT
Civil Twilight 6:36 AM CDT 7:07 PM CDT
Nautical Twilight 6:02 AM CDT 7:41 PM CDT
Astronomical Twilight 5:27 AM CDT 8:16 PM CDT
Moon 6:42 AM CDT (10/4) 6:18 PM CDT (10/4)
Length of Visible Light 12h 30m
Length of Day
11h 31m
Waning Crescent, 0% of the Moon is Illuminated
Oct 4
Waning Crescent
Oct 4
New
Oct 11
First Quarter
Oct 18
Full
Oct 26
Last Quarter

Hourly Weather History & Observations

Time (CDT) Temp. Dew Point Humidity Pressure Visibility Wind Dir Wind Speed Gust Speed Precip Events Conditions
12:15 AM 55.9 °F 54.9 °F 96% 29.96 in 10.0 mi NE 6.9 mph - N/A Rain Light Rain
12:35 AM 55.9 °F 54.7 °F 96% 29.96 in 10.0 mi NE 5.8 mph - N/A   Light Drizzle
12:55 AM 55.9 °F 54.7 °F 96% 29.96 in 10.0 mi NE 5.8 mph - N/A Rain Light Rain
1:15 AM 55.8 °F 54.5 °F 96% 29.97 in 7.0 mi NNE 6.9 mph - 0.01 in Rain Light Rain
1:35 AM 55.8 °F 54.5 °F 96% 29.98 in 5.0 mi NE 5.8 mph - 0.03 in   Drizzle
1:55 AM 55.4 °F 54.1 °F 96% 29.98 in 5.0 mi NE 6.9 mph - 0.05 in Rain Heavy Rain
2:15 AM 55.2 °F 53.8 °F 95% 29.98 in 7.0 mi NE 11.5 mph - 0.05 in Rain Light Rain
2:35 AM 55.0 °F 53.8 °F 96% 29.98 in 7.0 mi NE 8.1 mph - 0.06 in Rain Rain
2:55 AM 54.7 °F 53.6 °F 96% 29.97 in 7.0 mi NE 8.1 mph - 0.06 in   Light Drizzle
3:15 AM 54.7 °F 53.4 °F 96% 29.99 in 10.0 mi NE 6.9 mph - 0.01 in   Light Drizzle
3:35 AM 54.5 °F 53.2 °F 96% 30.00 in 10.0 mi North 6.9 mph - 0.01 in   Overcast
3:55 AM 54.0 °F 52.7 °F 95% 30.00 in 10.0 mi NNE 8.1 mph - 0.01 in   Overcast
4:15 AM 53.8 °F 52.3 °F 95% 30.00 in 10.0 mi NNE 9.2 mph - N/A   Overcast
4:35 AM 53.6 °F 52.0 °F 94% 30.00 in 10.0 mi ENE 8.1 mph - N/A   Overcast
4:55 AM 53.6 °F 52.0 °F 94% 30.00 in 10.0 mi ENE 10.4 mph - N/A   Overcast
5:15 AM 53.2 °F 51.8 °F 95% 30.01 in 10.0 mi ENE 8.1 mph - N/A   Overcast
5:35 AM 53.2 °F 51.4 °F 94% 30.00 in 10.0 mi NE 8.1 mph - N/A   Overcast
5:55 AM 52.9 °F 51.3 °F 94% 30.02 in 10.0 mi ENE 5.8 mph - N/A   Overcast
6:15 AM 53.2 °F 51.4 °F 94% 30.02 in 10.0 mi NE 8.1 mph - N/A   Overcast
6:35 AM 53.2 °F 51.6 °F 94% 30.02 in 10.0 mi NE 6.9 mph - N/A   Overcast
6:55 AM 53.1 °F 51.4 °F 94% 30.02 in 10.0 mi NNE 9.2 mph - N/A   Overcast
7:35 AM 53.2 °F 51.8 °F 95% 30.03 in 10.0 mi NE 5.8 mph - N/A   Overcast
7:55 AM 53.6 °F 51.8 °F 94% 30.03 in 10.0 mi NE 8.1 mph - N/A   Overcast
8:15 AM 53.8 °F 52.0 °F 94% 30.03 in 10.0 mi NE 9.2 mph - N/A   Overcast
8:35 AM 54.0 °F 52.0 °F 93% 30.03 in 10.0 mi NE 10.4 mph - N/A   Overcast
8:55 AM 54.5 °F 52.0 °F 91% 30.04 in 10.0 mi NE 10.4 mph - N/A   Overcast
9:15 AM 55.0 °F 51.8 °F 89% 30.05 in 10.0 mi ENE 8.1 mph - N/A   Overcast
9:35 AM 55.0 °F 51.8 °F 89% 30.05 in 10.0 mi ENE 5.8 mph - N/A   Overcast
9:55 AM 55.0 °F 52.0 °F 89% 30.05 in 10.0 mi NE 6.9 mph - N/A   Overcast
10:15 AM 55.4 °F 52.0 °F 88% 30.05 in 10.0 mi NE 9.2 mph - N/A   Overcast
10:35 AM 55.4 °F 51.8 °F 88% 30.05 in 10.0 mi NE 8.1 mph - N/A   Overcast
10:55 AM 55.4 °F 51.8 °F 88% 30.04 in 10.0 mi NE 10.4 mph - N/A   Overcast
11:15 AM 55.9 °F 51.8 °F 86% 30.04 in 10.0 mi NE 9.2 mph - N/A   Overcast
11:35 AM 56.5 °F 51.8 °F 84% 30.03 in 10.0 mi NE 13.8 mph - N/A   Overcast
11:55 AM 57.2 °F 51.8 °F 82% 30.05 in 10.0 mi ENE 12.7 mph 18.4 mph N/A   Overcast
12:15 PM 57.2 °F 51.8 °F 82% 30.05 in 10.0 mi ENE 11.5 mph 17.3 mph N/A   Overcast
12:35 PM 57.2 °F 51.8 °F 82% 30.06 in 10.0 mi East 10.4 mph - N/A   Overcast
12:55 PM 58.1 °F 52.2 °F 81% 30.05 in 10.0 mi ENE 9.2 mph 17.3 mph N/A   Overcast
1:15 PM 58.1 °F 51.8 °F 80% 30.05 in 10.0 mi ENE 13.8 mph 21.9 mph N/A   Overcast
1:35 PM 58.6 °F 52.0 °F 79% 30.05 in 10.0 mi ENE 11.5 mph 17.3 mph N/A   Overcast
1:55 PM 58.5 °F 52.0 °F 79% 30.04 in 10.0 mi ENE 12.7 mph 20.7 mph N/A   Overcast
2:15 PM 59.0 °F 52.2 °F 78% 30.04 in 10.0 mi ENE 12.7 mph - N/A   Overcast
2:35 PM 58.6 °F 52.2 °F 79% 30.04 in 10.0 mi ENE 11.5 mph 16.1 mph N/A   Overcast
2:55 PM 58.1 °F 52.2 °F 81% 30.04 in 10.0 mi ENE 10.4 mph - N/A Rain Rain
3:15 PM 57.2 °F 53.6 °F 88% 30.03 in 5.0 mi East 9.2 mph - 0.03 in Rain Light Rain
3:35 PM 56.7 °F 53.8 °F 90% 30.04 in 7.0 mi East 4.6 mph - 0.04 in Rain Rain
3:55 PM 56.7 °F 54.5 °F 92% 30.04 in 7.0 mi ENE 5.8 mph - 0.05 in Rain Light Rain
4:15 PM 56.3 °F 54.5 °F 94% 30.05 in 4.0 mi East 5.8 mph - N/A   Light Drizzle
4:35 PM 56.3 °F 54.7 °F 94% 30.03 in 5.0 mi ENE 9.2 mph - 0.01 in Rain Light Rain
4:55 PM 56.3 °F 54.5 °F 94% 30.04 in 7.0 mi ENE 9.2 mph - 0.03 in Rain Light Rain
5:15 PM 56.3 °F 54.5 °F 94% 30.04 in 10.0 mi ENE 9.2 mph - N/A   Overcast
5:35 PM 56.3 °F 54.1 °F 92% 30.04 in 10.0 mi ENE 9.2 mph - N/A   Overcast
5:55 PM 56.3 °F 54.3 °F 93% 30.03 in 10.0 mi ENE 9.2 mph - N/A   Overcast
6:15 PM 56.3 °F 54.0 °F 92% 30.03 in 10.0 mi ENE 9.2 mph - N/A   Overcast
6:35 PM 56.3 °F 54.0 °F 92% 30.03 in 10.0 mi ENE 12.7 mph - N/A   Overcast
6:55 PM 55.9 °F 54.0 °F 93% 30.03 in 7.0 mi ENE 10.4 mph - N/A   Overcast
7:15 PM 55.9 °F 54.1 °F 94% 30.03 in 5.0 mi ENE 12.7 mph 17.3 mph N/A   Overcast
7:35 PM 55.8 °F 54.1 °F 94% 30.02 in 4.0 mi ENE 10.4 mph - N/A   Overcast
7:55 PM 55.6 °F 54.1 °F 95% 30.03 in 5.0 mi ENE 9.2 mph - N/A   Overcast
8:15 PM 55.4 °F 54.0 °F 95% 30.03 in 7.0 mi ENE 10.4 mph - N/A   Overcast
8:35 PM 55.4 °F 54.0 °F 95% 30.03 in 7.0 mi East 11.5 mph 16.1 mph N/A   Overcast
8:55 PM 55.8 °F 54.1 °F 94% 30.04 in 10.0 mi East 10.4 mph 16.1 mph N/A   Overcast
9:15 PM 55.9 °F 53.8 °F 92% 30.02 in 10.0 mi East 12.7 mph 20.7 mph N/A   Overcast
9:35 PM 55.9 °F 53.6 °F 92% 30.03 in 10.0 mi East 11.5 mph 19.6 mph N/A   Overcast
9:55 PM 55.9 °F 53.4 °F 91% 30.03 in 10.0 mi East 11.5 mph 18.4 mph N/A   Overcast
10:15 PM 55.9 °F 53.1 °F 90% 30.03 in 10.0 mi East 10.4 mph 17.3 mph N/A   Overcast
10:35 PM 55.9 °F 52.7 °F 89% 30.02 in 10.0 mi East 11.5 mph 17.3 mph N/A   Overcast
10:55 PM 55.9 °F 52.5 °F 88% 30.02 in 10.0 mi East 10.4 mph 18.4 mph N/A   Overcast
11:15 PM 55.9 °F 52.7 °F 89% 30.01 in 10.0 mi East 11.5 mph - N/A   Overcast
11:35 PM 55.9 °F 52.7 °F 89% 30.01 in 10.0 mi East 12.7 mph 17.3 mph N/A   Overcast
11:55 PM 55.9 °F 52.9 °F 89% 30.01 in 10.0 mi East 13.8 mph 19.6 mph 0.01 in Rain Light Rain